Location: Groß Eilstorf
(52.8200°N, 9.4552°E)
Time: 15:03:26
(UTC+00:00)

Cosmos 1766 - Pass Details

Date: 15 May 2026
Orbit: 397 x 405 km, 82.5° (Epoch: 10 June)

Event Time Altitude Azimuth Distance (km) Brightness Sun altitude
Rises 21:51:58 0° 346° (NNW) 2,366 8.4 -15.7°
Reaches altitude 10° 21:54:01 10° 342° (NNW) 1,497 6.9 -15.8°
Maximum altitude 21:57:13 57° 263° (W) 496 3.1 -16.0°
Enters shadow 21:58:21 34° 201° (SSW) 703 3.5 -16.1°
